Location: St Paul
(33.4390°N, 83.7350°W)
Time: 23:08:06
(UTC-04:00)

COSMOS 2487 - Pass Details

Date: 06 October 2017
Orbit: 456 x 461 km, 74.7° (Epoch: 20 October)

Event Time Altitude Azimuth Distance (km) Brightness Sun altitude
Rises 20:06:37 0° 211° (SSW) 2,468 6.6 -12.1°
Reaches altitude 10° 20:08:48 10° 220° (SW) 1,599 5.7 -12.6°
Maximum altitude 20:12:05 37° 289° (WNW) 734 4.1 -13.3°
Drops below altitude 10° 20:15:24 10° 358° (N) 1,613 5.3 -14.0°
Sets 20:17:37 0° 7° (N) 2,492 6.1 -14.4°
